Location: Unspecified
(44.4377°N, 88.0525°W)
Time: 18:07:15
(UTC-05:00)

Resurs 1-4 Rocket - Visible Passes

Search period start: 01 April 2023 00:00
Search period end: 11 April 2023 00:00
Orbit: 800 x 813 km, 98.7° (Epoch: 01 April)

Date Brightness Start Highest point End Pass type
(mag) Time Alt. Az. Time Alt. Az. Time Alt. Az.
01 Apr 4.2 02:01:32 10° NNE 02:03:45 23° NE 02:03:45 23° NE visible
01 Apr 3.5 03:41:37 10° N 03:44:50 26° NW 03:44:50 26° NW visible
02 Apr 4.5 01:37:18 10° NE 01:38:50 16° NE 01:38:50 16° NE visible
02 Apr 3.3 03:16:32 10° N 03:19:54 35° NNW 03:19:54 35° NNW visible
03 Apr 4.8 01:13:39 10° NE 01:13:53 11° ENE 01:13:53 11° ENE visible
03 Apr 3.2 02:51:38 10° N 02:54:58 39° N 02:54:58 39° N visible
03 Apr 4.2 04:33:53 10° NNW 04:35:51 12° NW 04:36:02 12° WNW visible
04 Apr 3.5 02:26:55 10° NNE 02:30:02 35° NNE 02:30:02 35° NNE visible
04 Apr 3.8 04:07:52 10° NNW 04:11:06 19° NW 04:11:06 19° NW visible
05 Apr 3.9 02:02:23 10° NNE 02:05:05 27° NE 02:05:05 27° NE visible
05 Apr 3.4 03:42:30 10° N 03:46:10 28° NW 03:46:10 28° NW visible
06 Apr 4.3 01:38:09 10° NE 01:40:09 19° ENE 01:40:09 19° ENE visible
06 Apr 3.0 03:17:25 10° N 03:21:14 39° NNW 03:21:14 39° NNW visible
07 Apr 4.7 01:14:28 10° NE 01:15:13 12° ENE 01:15:13 12° ENE visible
07 Apr 2.9 02:52:31 10° N 02:56:17 47° N 02:56:17 47° N visible
07 Apr 4.1 04:34:50 10° NNW 04:36:42 12° NW 04:37:22 12° WNW visible
08 Apr 3.2 02:27:47 10° NNE 02:31:21 42° NE 02:31:21 42° NE visible
08 Apr 3.7 04:08:45 10° NNW 04:12:20 19° WNW 04:12:25 19° WNW visible
09 Apr 3.7 02:03:15 10° NNE 02:06:24 31° NE 02:06:24 31° NE visible
09 Apr 3.3 03:43:23 10° N 03:47:29 28° NW 03:47:29 28° NW visible
10 Apr 4.2 01:38:59 10° NE 01:41:28 21° ENE 01:41:28 21° ENE visible
10 Apr 2.8 03:18:17 10° N 03:22:32 42° NW 03:22:32 42° NW visible
